{"data":{"norad_id":66187,"epoch":"2026-09-20T16:48:37.487232Z","epoch_age_seconds":83122,"freshness":"FRESH","line1":"1 66187U 25243L   26263.70043388  .00019413  00000+0  58360-3 0  9998","line2":"2 66187  53.1608  57.1215 0001068  82.3891 277.7233 15.34433250 50545","mean_motion":15.3443325,"eccentricity":0.0001068,"inclination_deg":53.1608,"raan_deg":57.1215,"arg_perigee_deg":82.3891,"mean_anomaly_deg":277.7233,"bstar":0.0005836,"rev_number":5054,"period_min":93.845724471886,"perigee_km":461.87382480133,"apogee_km":463.33500716779,"semimajor_km":6840.7414159846,"source":"CELESTRAK","updated_at":"2026-09-21T09:00:35.835389Z"}}